User: anonymous   Login
Location: Caltech
(34.1382°N, 118.1253°W)
Time: 18:44:28
(UTC-07:00)
Language:

Cosmos 1939 Rocket - Orbit

View from above orbital plane
View from above orbital plane
View from above satellite
View from above satellite

Ground track
Ground track

The orbit data is extracted from the following two-line orbital elements,

1 19046U 88032B   16270.47405685  .00000595  00000-0  49178-4 0  9998
2 19046  97.5742 318.4085 0041595 146.6170 213.7691 15.02038066533050
Epoch (UTC): 26 September 2016 11:22:38
Eccentricity: 0.0041595
inclination: 97.5742°
perigee height: 532 km
apogee height: 589 km
right ascension of ascending node: 318.4085°
argument of perigee: 146.6170°
revolutions per day: 15.02038066
mean anomaly at epoch: 213.7691°
orbit number at epoch: 53305

The dashed part of the orbit path shows where the satellite is in the earth's shadow,  

DLR